Corpus Christi, TX

05:10 CDT le 24 août 2016 (GMT -0500)
Corpus Christi International | | Change Station

Alt. 43 ft 27.77 °N, 97.51 °W | Updated 19 minutes ago

Partly Cloudy
Partiellement nuageux
79 ° F
Paraît 79 ° F
N
8
Vent Variable Vent de SSE

Aujourd'hui
Haut(e) -- | Bas -- ° F
--% Risque de précip.
Hier
Haut(e) -- | Bas -- ° F
Precip. -- pouce
Pression 30.08 pouce
Visibilité 10.0 Miles terrestres
Nuages Peu 2000 ft
Point de rosée 77 ° F
Humidité 94%
Précipitations 0.00 pouce
Profondeur de la couche neigeuse Non disponible.
7:05 AM 7:58 PM
Lune gibbeuse décroissante, 58% visible
METAR KCRP 240951Z 15007KT 10SM FEW020 26/25 A3008 RMK AO2 SLP184 T02610250
Pression 30.08 pouce
Visibilité 10.0 Miles terrestres
Nuages Peu 2000 ft
Point de rosée 77 ° F
Humidité 94%
Précipitations 0.00 pouce
Profondeur de la couche neigeuse Non disponible.
7:05 AM 7:58 PM
Lune gibbeuse décroissante, 58% visible
METAR KCRP 240951Z 15007KT 10SM FEW020 26/25 A3008 RMK AO2 SLP184 T02610250

10-Day Weather Forecast

Almanac

Astronomie

Aug. 24, 2016 Lever Coucher
Temps réel
Crépuscule civil
Crépuscule nautique
Crépuscule astronomique
Lune
Durée de lumière visible
Longueur du jour
Tomorrow will be .
, % of the Moon is Illuminated

Extrêmes aujourd'hui

State Highs State Lows

Community

WunderPhotos

Upload Photos

1,934,560 Photos téléchargées !

WunderBlog® & News

Nearby

Qualité de l'air

  Qualité de l'air Indice de la qualité de l'air Polluant
Not available.

Épaisseur de neige

Station Depth Altitude

Activité sismique

Ville Distance Mag. Time & Date
Minimum magnitude displayed is 2.5.

Températures des eaux côtières

Lieu Température

Stations

Stations météo à proximité

Emplacement de la station Température Refroidissement éolien Point de rosée Humidité Vent Precip. Alt. Mise à jour Type
                   

Watches & Warnings

There are currently no watches in effect.